Location: �chenoz-la-M�line
(47.6009°N, 6.1354°E)
Time: 12:05:08
(UTC+00:00)

Cosmos 1441 Rocket - Pass Details

Date: 27 January 2021
Orbit: 495 x 540 km, 81.1° (Epoch: 03 March)

Event Time Altitude Azimuth Distance (km) Brightness Sun altitude
Rises 06:02:58 0° 350° (N) 2,702 6.6 -11.1°
Reaches altitude 10° 06:05:09 10° 353° (N) 1,800 5.7 -10.7°
Maximum altitude 06:09:07 70° 77° (ENE) 570 3.6 -10.1°
Drops below altitude 10° 06:12:58 10° 162° (SSE) 1,761 6.4 -9.4°
Sets 06:15:06 0° 164° (SSE) 2,636 7.3 -9.1°
